Wind_Speed
13 15 17 18 18 18 17 16 15 15 15 15 15 16 16 16 17 15 14 15 15 15 15 15 14 14 15 15 15 14 13 13 13 13 13 13 15 15 14 14 14 14 14 14 15 16 16 17 16 14 12 10 9 7 6 7 7 6 6 7 6 6 7 7 7 6 6 5 4 4 2 1 3 4 5 5 5 5 4 2 3 4 3 1 1
13 15 17 18 18 19 18 17 16 16 16 16 15 15 14 14 16 15 13 13 15 16 16 15 15 15 14 14 13 13 13 14 14 14 13 13 15 16 15 15 15 15 15 15 16 16 17 18 17 16 14 13 11 10 8 9 9 7 6 7 7 7 8 8 7 6 5 5 5 4 2 2 3 2 3 4 5 5 5 4 3 4 5 2 1
14 15 17 18 19 19 19 18 18 18 16 16 16 16 15 15 15 14 13 13 15 16 17 17 16 16 14 13 14 14 15 15 13 13 13 12 14 16 16 16 16 15 17 17 16 17 18 18 17 15 15 14 13 11 9 9 9 8 7 8 8 8 8 7 6 6 6 6 5 4 3 3 2 2 1 3 4 4 4 5 3 3 5 3 2
15 16 17 17 18 19 19 20 19 19 19 18 19 19 17 16 15 15 15 15 14 15 17 18 18 16 15 14 15 15 15 15 14 14 14 14 14 15 17 17 16 16 17 17 17 18 18 18 17 14 14 14 13 12 11 9 9 9 8 8 9 9 9 7 7 6 6 6 6 5 5 4 2 1 2 2 2 3 4 4 3 4 4 3 2
14 15 16 18 19 19 19 20 18 19 20 18 17 18 17 16 15 16 18 17 16 15 16 18 18 17 16 15 14 15 16 16 16 16 15 16 16 15 16 17 17 17 17 17 18 18 18 17 17 15 13 14 12 11 11 10 10 10 9 9 9 9 10 9 8 7 6 6 6 6 6 5 5 5 4 1 1 3 4 3 3 5 4 2 2
13 13 13 17 18 18 18 19 18 18 19 17 16 17 17 16 16 18 19 18 17 16 17 19 18 18 18 17 16 17 18 17 17 17 15 16 16 15 15 17 18 18 18 18 18 18 18 16 17 16 14 13 12 12 12 11 11 11 10 10 10 10 10 10 9 7 7 7 7 6 6 6 7 7 6 3 1 2 4 5 5 6 3 2 2
11 12 12 13 16 18 19 20 20 20 18 15 16 18 19 18 17 18 19 18 18 18 19 20 20 20 20 20 19 18 18 17 17 16 14 14 15 15 15 16 18 18 17 19 19 18 18 17 17 17 15 13 12 13 13 12 12 11 11 10 10 10 10 11 10 8 8 8 7 7 7 7 8 8 7 6 4 3 4 4 6 6 3 2 2
11 11 12 13 14 17 19 21 21 21 20 16 15 17 18 19 18 18 18 18 19 19 21 21 22 22 22 22 20 18 17 15 17 16 14 13 14 14 14 14 17 18 17 19 20 20 19 18 17 17 17 14 12 13 12 12 12 11 11 12 12 12 11 11 10 9 9 8 7 7 8 8 7 8 8 7 6 5 4 4 5 6 4 2 2
9 10 11 12 13 14 17 19 19 20 21 19 17 17 17 18 19 19 19 19 19 20 21 21 22 23 23 22 21 20 18 14 14 16 16 16 16 15 15 13 15 18 19 18 19 19 19 19 17 17 17 14 13 12 11 11 11 11 12 12 12 11 10 10 10 9 9 9 8 8 8 8 8 8 8 8 7 7 5 4 5 5 4 2 3
7 7 8 9 11 12 14 16 17 19 21 20 18 19 18 17 18 18 18 19 19 20 21 22 23 23 23 23 23 22 20 17 15 15 17 18 17 16 17 15 14 15 17 18 18 18 18 17 16 15 15 13 13 13 12 12 12 12 12 11 11 11 9 9 10 10 10 10 10 9 9 9 9 8 8 7 7 7 7 6 5 4 3 2 4
4 4 5 7 9 11 13 14 15 17 17 14 14 16 16 16 16 15 15 17 19 19 20 22 23 23 22 22 23 22 21 19 18 16 16 17 17 16 16 16 15 13 14 15 16 16 15 16 15 13 13 13 13 13 11 11 11 10 10 10 11 11 10 9 10 10 10 10 11 11 11 11 11 9 8 8 7 8 8 7 6 5 4 3 3
1 2 3 5 7 9 11 13 14 15 13 11 11 12 14 16 16 16 16 17 19 19 18 20 23 23 22 21 21 21 20 19 18 17 16 17 17 16 15 16 16 14 13 14 15 14 14 15 15 13 12 12 12 12 11 10 10 9 9 9 10 12 11 11 11 10 11 11 11 12 13 12 12 10 8 8 8 8 8 8 7 6 6 5 4
4 2 1 3 5 7 9 11 13 13 11 12 13 13 13 16 17 18 18 17 20 21 18 19 22 22 21 20 20 20 20 19 18 16 16 16 15 15 16 16 17 16 15 15 14 14 14 15 16 15 13 13 13 13 12 11 10 9 10 10 12 15 14 14 13 11 13 14 12 13 15 14 13 11 8 8 9 8 9 9 9 7 7 7 6
8 5 4 3 4 5 7 8 10 11 11 13 14 12 12 15 17 20 21 18 19 21 20 19 21 21 21 20 19 19 19 19 18 16 15 15 14 15 15 15 15 16 15 15 14 15 14 14 16 17 16 15 14 14 14 13 11 11 12 12 13 15 15 15 14 13 15 15 15 17 17 15 14 13 10 9 9 9 9 9 9 8 9 8 8
12 9 7 5 4 4 5 6 8 9 11 14 13 11 11 14 16 19 22 21 19 20 21 21 21 20 21 21 19 19 19 18 17 17 15 15 14 14 15 15 14 14 14 14 14 15 15 14 14 16 18 17 15 14 14 14 14 13 12 12 13 14 14 14 14 14 15 17 18 19 18 17 15 14 12 10 9 10 10 10 9 9 9 9 8
16 14 12 9 7 5 4 4 5 7 10 13 11 11 12 13 14 17 20 21 20 19 20 22 21 21 22 22 21 19 19 18 17 17 16 15 15 14 15 16 16 15 14 14 13 14 14 14 15 16 18 19 18 16 15 15 16 15 14 14 14 14 14 13 13 14 15 16 17 17 17 16 14 13 12 11 10 10 11 11 10 10 10 10 9
18 17 16 14 10 6 4 4 3 5 9 11 10 8 10 11 12 15 16 17 19 19 19 20 20 21 23 23 22 21 20 19 18 17 16 15 16 15 15 16 17 17 17 16 15 14 14 14 14 14 16 18 20 18 16 17 18 17 17 17 16 15 15 14 14 14 14 15 15 15 15 16 14 12 11 9 11 13 12 12 12 11 11 11 10
19 18 18 18 15 10 6 4 3 3 6 9 9 7 7 9 10 12 14 15 17 18 18 18 18 20 22 23 23 22 21 20 19 18 17 17 17 16 15 16 17 18 18 18 17 16 16 16 16 15 15 16 19 19 17 18 18 18 18 19 18 17 16 15 15 15 15 15 14 14 15 15 14 13 11 9 10 14 14 13 12 12 12 12 11
22 21 20 19 18 15 10 5 3 2 3 6 8 7 7 8 9 9 11 14 16 16 16 17 17 18 20 21 22 22 22 21 21 20 19 19 19 18 17 16 16 17 18 19 19 18 17 17 17 17 16 16 18 18 18 18 18 18 19 19 17 16 16 16 16 16 16 15 14 14 15 14 13 12 12 9 10 13 14 13 13 12 12 13 12
23 22 20 20 19 16 13 8 4 2 2 3 6 8 7 8 9 9 9 11 14 14 14 15 16 17 19 20 21 21 21 22 22 22 21 21 21 20 19 18 17 17 18 19 19 18 18 18 16 16 16 16 17 17 17 18 18 18 18 17 14 14 15 15 15 16 16 15 14 14 15 14 13 12 12 10 11 14 14 13 13 13 13 14 14
23 22 21 20 19 16 13 10 6 2 1 2 4 7 7 7 8 9 10 11 12 12 12 14 16 18 19 20 21 21 21 22 22 22 22 22 22 22 21 20 19 18 18 19 19 20 21 20 18 17 17 17 18 18 16 16 18 18 18 17 16 16 17 16 16 17 16 15 16 16 16 15 14 14 12 11 12 14 13 13 13 13 13 14 14
24 24 22 21 20 18 15 11 7 3 1 1 3 5 7 7 8 9 11 13 14 13 12 14 16 17 18 19 20 21 22 23 22 22 22 23 23 23 24 23 22 20 19 19 20 21 22 23 22 20 19 18 18 20 19 17 17 17 18 17 16 17 19 18 18 18 17 17 17 18 18 16 15 15 13 12 14 14 13 13 13 13 14 14 14
24 25 24 23 21 19 17 14 10 7 4 1 2 4 6 7 8 8 10 12 14 15 15 15 15 15 16 17 18 19 21 21 20 21 22 22 23 24 25 26 25 23 21 21 22 23 22 23 23 22 22 21 20 21 21 20 19 20 19 18 16 16 17 16 17 18 17 18 19 19 18 16 15 14 13 14 15 15 15 15 14 14 15 15 14
25 25 25 24 22 21 20 16 13 10 7 4 2 3 5 6 7 8 9 10 11 14 16 17 17 17 17 17 17 17 18 18 19 20 20 21 23 24 26 26 26 25 24 23 23 23 22 23 24 24 24 24 24 24 23 22 22 21 21 20 19 18 17 17 17 16 17 19 19 17 16 16 16 15 15 16 16 16 15 15 15 14 14 15 14
26 26 25 24 24 23 22 19 15 13 11 8 4 2 4 6 6 7 8 8 10 11 13 16 17 18 18 18 18 17 17 17 18 19 20 21 21 23 25 26 26 26 26 24 24 24 23 24 25 25 25 25 25 25 25 24 22 22 21 21 21 20 20 19 18 18 19 20 19 18 18 18 19 19 18 17 16 16 15 14 14 13 13 14 14
26 27 26 25 24 23 23 21 17 15 13 11 8 4 4 5 6 7 7 8 10 11 12 13 15 17 18 19 20 20 18 18 18 18 19 21 21 21 22 24 24 25 24 24 24 24 25 25 26 25 25 25 25 25 26 24 23 22 22 22 21 21 21 21 20 19 20 21 22 21 22 22 23 22 19 17 16 16 15 14 14 13 13 14 14
22 25 27 26 25 23 23 23 21 18 15 12 10 8 5 5 6 8 9 9 10 11 12 13 14 15 17 18 19 21 21 20 19 18 19 21 20 20 21 22 22 22 23 23 23 23 24 26 27 27 26 25 26 26 26 25 25 24 23 22 21 21 21 21 21 19 19 20 22 22 23 24 24 24 21 19 17 15 14 14 13 13 13 13 14
18 21 24 26 27 26 23 23 24 23 19 13 11 10 8 7 6 7 9 9 9 10 11 13 14 15 15 15 16 18 20 21 21 20 20 21 21 21 22 22 21 21 22 23 23 23 23 24 26 28 27 26 26 26 26 26 26 25 24 23 22 22 22 22 21 21 20 21 22 23 22 22 21 22 22 21 18 16 15 14 12 12 12 13 14
15 16 18 21 25 27 26 24 24 25 24 18 12 11 10 9 8 9 9 9 8 8 10 13 14 13 12 13 13 14 16 18 19 19 19 21 22 23 23 22 22 22 22 23 23 23 23 24 26 26 26 26 26 25 25 26 25 25 25 24 22 21 22 22 21 20 19 20 22 22 21 20 20 21 22 20 18 17 17 16 14 15 15 15 15
18 15 14 16 19 23 25 26 24 24 26 22 15 12 12 11 10 9 9 9 8 8 10 12 12 12 12 12 13 14 15 16 17 17 18 20 22 21 21 21 22 23 24 24 23 24 25 26 27 27 27 27 27 26 25 25 25 24 23 23 22 21 21 20 19 18 18 19 19 19 19 20 21 21 21 19 18 18 18 17 17 17 16 15 16
18 18 17 16 16 18 22 26 26 25 25 23 18 14 13 12 11 10 9 8 8 9 10 10 11 13 13 13 15 16 16 16 15 15 17 18 18 19 20 20 21 23 25 25 25 25 26 27 28 29 28 28 28 26 24 24 25 24 22 20 19 19 18 18 17 18 19 18 16 17 18 19 19 19 20 20 19 17 17 16 16 15 15 14 15
16 19 19 18 18 18 19 22 26 27 26 24 20 15 14 13 12 11 9 8 8 10 10 9 11 12 12 13 15 15 15 15 13 13 13 14 15 17 19 20 21 22 24 24 24 25 27 27 28 29 29 28 26 24 22 23 24 22 20 18 16 15 15 15 16 18 18 16 16 17 18 18 18 17 18 18 17 16 16 15 14 14 14 14 14
15 17 19 19 18 18 17 18 23 26 26 25 21 16 14 14 14 12 9 8 10 10 9 9 11 11 10 11 14 14 14 14 13 12 11 12 14 15 16 16 17 19 20 19 20 22 24 27 27 28 28 27 23 21 21 22 22 20 18 18 17 15 14 15 17 18 16 15 15 15 15 16 16 16 16 16 15 15 14 13 13 13 13 13 12
15 16 18 20 19 18 18 17 20 24 26 25 21 16 14 14 14 12 10 8 10 11 9 8 10 10 10 11 12 13 13 12 11 11 10 12 13 13 13 14 16 17 18 18 18 19 22 27 29 25 25 26 23 21 21 21 19 18 17 17 18 17 15 15 16 16 14 13 14 15 16 16 16 16 15 14 14 13 13 13 13 12 12 12 12
16 16 17 18 19 19 18 17 18 21 24 25 22 19 16 14 12 12 11 9 10 12 11 9 9 9 10 10 11 11 11 11 11 11 12 13 13 13 14 15 17 19 18 18 18 16 16 23 27 23 21 23 21 19 20 20 18 17 17 17 18 17 16 15 15 14 14 14 15 16 16 16 15 13 13 13 13 12 13 14 13 13 12 12 12
16 16 17 17 18 18 17 17 17 19 22 24 23 22 19 15 12 12 12 10 11 11 11 10 9 8 8 9 9 9 10 11 12 13 13 13 13 13 14 16 18 19 18 17 17 14 11 14 19 18 18 19 18 18 19 19 18 17 17 17 17 16 16 15 15 14 14 15 15 14 14 13 12 12 13 14 12 12 14 14 13 13 12 11 11
16 17 17 17 17 17 16 17 18 19 21 22 22 22 21 16 14 14 14 12 11 10 11 11 9 8 8 8 8 8 10 12 12 11 10 11 12 13 15 17 17 17 17 16 14 13 12 11 14 15 16 16 16 17 18 18 18 17 17 17 18 17 17 16 15 15 15 15 14 14 14 12 11 12 14 14 12 12 14 14 14 13 12 10 11
17 17 17 17 18 18 17 16 17 19 21 21 21 21 20 17 15 16 16 14 12 10 11 12 11 10 9 9 9 9 11 12 11 9 9 10 11 12 14 16 16 15 15 13 11 11 12 12 14 15 15 14 15 16 16 16 16 16 16 18 18 16 16 17 16 16 14 12 12 14 15 14 12 14 15 14 13 15 16 15 14 14 14 12 11
17 17 17 17 18 18 17 16 16 18 20 20 20 20 19 17 16 16 15 13 11 11 12 12 12 11 10 10 10 11 12 12 10 9 10 10 10 11 12 13 14 13 13 11 10 10 10 10 12 13 13 13 14 14 14 13 13 14 15 17 17 15 16 17 16 13 11 10 12 15 17 18 17 18 18 17 17 17 16 13 11 13 14 13 12
18 17 17 17 17 17 17 16 15 16 18 19 19 19 18 17 16 14 13 11 11 11 11 11 11 10 10 10 11 12 13 13 11 11 11 10 11 12 12 12 12 12 11 11 10 10 9 10 10 10 10 11 12 12 12 11 12 14 14 15 15 15 16 16 13 10 9 10 11 13 17 21 21 20 21 20 19 17 14 11 11 13 13 14 14
18 17 17 17 16 16 16 16 15 15 17 17 17 17 17 17 16 14 12 10 10 10 10 11 10 8 8 10 11 13 14 13 12 12 13 12 12 11 11 11 11 10 9 10 10 10 10 10 10 10 10 11 10 11 11 11 12 13 13 13 13 13 12 11 10 9 9 10 11 14 19 21 19 19 20 19 17 15 13 12 13 14 14 15 16
18 17 16 16 16 16 16 16 15 14 15 16 15 16 17 16 16 16 14 11 9 8 8 10 10 8 8 10 11 13 14 14 13 13 13 13 11 10 9 10 10 9 9 10 11 11 11 11 11 11 10 10 11 11 11 12 12 13 14 13 12 12 12 11 10 9 9 11 14 17 19 17 14 14 15 13 13 13 14 16 16 16 17 17 18
19 18 16 15 16 16 16 15 14 14 15 15 14 15 16 16 16 16 17 14 11 9 8 8 9 9 9 10 11 13 14 14 13 14 14 13 11 10 11 10 10 10 12 12 12 11 11 10 10 10 11 11 12 13 13 13 13 13 13 12 12 14 15 15 14 11 9 10 12 14 14 12 9 10 11 11 12 12 14 15 16 16 17 17 16
19 19 17 16 16 16 16 15 14 14 14 14 14 14 15 16 16 16 18 16 12 10 9 7 8 10 9 10 12 14 14 14 14 15 15 15 13 11 11 11 11 12 12 12 12 11 10 10 9 9 10 11 11 12 13 13 12 11 11 11 12 13 13 13 13 10 9 10 10 10 9 9 9 9 9 10 11 11 10 10 10 10 11 11 9
19 19 17 17 17 16 17 16 14 13 14 13 13 14 15 16 16 16 18 17 12 10 9 7 8 10 10 10 13 15 16 16 17 17 16 15 14 12 11 12 12 12 12 12 12 11 9 9 9 9 10 11 11 12 12 11 10 10 10 10 10 10 10 9 8 8 8 9 9 8 7 7 7 7 7 8 8 8 7 6 6 6 6 6 4
20 19 18 18 18 16 16 16 15 14 13 13 13 13 14 15 16 15 16 16 13 11 9 8 9 10 11 11 13 16 16 17 18 18 17 16 15 14 13 13 12 12 12 12 12 11 9 9 10 9 9 11 12 12 12 11 10 9 8 9 9 9 8 8 8 8 7 6 7 6 5 5 5 6 6 6 6 5 4 3 4 4 3 2 3
21 20 18 18 18 17 16 17 16 14 12 12 13 14 14 14 16 15 13 13 13 12 8 7 10 11 10 12 13 14 16 17 17 17 16 16 16 15 14 14 13 13 13 12 11 11 10 10 10 10 10 11 12 13 13 13 11 9 8 8 8 8 9 9 9 9 8 7 6 6 6 6 6 6 6 6 5 4 3 1 3 3 2 3 3
21 20 19 18 18 17 17 16 16 15 13 12 13 13 14 13 14 15 13 12 11 10 7 6 9 10 10 12 13 14 16 17 17 17 17 17 16 16 15 15 14 14 13 13 12 11 12 12 12 11 11 12 13 13 14 14 12 10 8 7 6 7 8 9 9 9 8 7 7 7 7 6 7 7 6 5 4 3 3 3 3 3 3 4 4
20 20 19 17 17 18 17 16 15 14 13 13 13 13 13 13 14 14 13 11 10 9 7 5 6 9 11 12 14 15 16 18 18 18 18 17 17 16 14 14 14 14 14 14 13 12 12 13 14 13 13 12 12 13 14 13 12 11 9 7 6 6 7 9 9 8 8 7 6 6 5 5 5 5 5 4 4 4 4 5 6 6 5 5 4
21 21 19 17 17 18 17 17 16 14 13 13 14 14 14 13 13 13 13 11 9 7 5 5 4 8 10 11 14 16 17 18 19 19 18 17 17 17 16 16 17 17 16 16 16 15 15 14 14 14 15 14 13 12 13 12 11 11 10 8 7 7 7 7 7 7 6 5 4 4 5 5 5 5 5 5 6 6 6 6 7 7 6 6 6
21 21 19 18 17 17 17 17 17 15 13 13 14 15 15 14 12 12 12 12 10 6 4 3 3 7 9 10 13 17 17 17 19 19 17 15 16 17 17 17 17 17 16 16 17 18 19 18 16 15 16 17 16 14 13 12 11 11 9 8 8 8 7 6 6 6 6 5 5 6 6 6 6 6 6 7 7 7 7 8 8 7 6 6 6
Wind_Direction
187 182 181 194 207 206 208 208 204 207 208 212 213 210 209 206 207 214 213 214 220 218 212 210 210 212 215 213 212 213 213 211 210 211 211 212 211 209 209 210 210 212 215 211 206 207 210 213 218 223 228 236 242 252 263 261 264 273 283 298 311 314 318 323 320 320 322 322 332 335 319 345 7 40 52 47 49 42 35 32 5 7 13 344 338
187 180 180 197 211 210 210 212 209 211 211 211 215 218 218 215 216 218 215 215 219 219 217 214 213 215 214 211 210 212 213 211 209 210 209 212 216 212 210 213 212 211 213 213 211 212 215 217 221 227 232 237 242 250 261 263 268 274 279 293 304 308 316 319 315 312 315 324 326 316 286 265 305 343 35 37 40 44 35 26 12 359 2 6 356
190 182 180 197 214 213 214 218 217 218 218 215 214 217 220 218 218 221 218 217 220 221 221 219 219 219 214 211 210 210 213 213 209 209 207 211 221 218 214 215 214 214 215 214 215 215 217 221 225 231 235 238 245 253 260 268 273 275 276 287 297 304 312 316 314 306 306 318 313 303 295 277 263 258 294 25 40 40 29 22 7 340 350 354 2
198 187 180 195 216 218 216 220 220 221 221 217 215 216 217 216 215 219 219 218 220 221 223 224 224 222 215 213 213 209 212 213 208 208 208 207 216 221 219 217 215 217 219 217 217 218 220 224 226 229 234 239 246 255 260 266 272 272 274 282 291 302 308 310 311 302 300 309 304 304 305 293 291 325 336 33 25 3 15 18 336 325 343 344 350
207 198 187 190 210 222 222 221 220 222 223 221 221 220 219 218 216 217 218 215 213 216 222 224 223 222 217 214 215 212 211 212 209 210 211 211 213 217 221 222 217 217 220 219 218 221 222 224 226 226 233 240 245 254 260 263 266 268 272 278 285 295 301 303 304 298 294 294 292 298 302 300 322 336 332 325 290 335 359 3 326 328 344 344 348
218 214 200 189 203 222 226 221 215 217 224 229 232 228 223 224 220 217 218 217 211 211 220 222 219 220 216 209 211 213 213 213 212 209 210 214 216 214 218 224 221 218 221 222 220 223 223 223 227 228 232 241 246 251 256 260 262 264 269 275 281 288 293 296 299 299 295 288 282 281 283 292 309 316 317 312 258 302 339 353 346 340 343 346 352
223 221 214 198 201 214 219 217 211 213 225 231 231 231 227 224 221 217 218 220 216 211 216 219 218 220 219 214 213 214 215 215 215 210 207 214 215 213 215 221 223 219 220 224 221 222 224 224 228 229 230 239 248 253 257 261 265 266 266 268 272 278 285 290 296 299 294 288 282 275 274 282 292 298 305 305 294 296 311 329 339 339 335 334 342
222 219 219 211 205 210 214 216 213 215 230 236 229 230 228 222 221 221 220 219 216 212 213 216 218 220 222 221 217 216 216 218 221 215 206 208 210 210 213 218 224 220 216 223 224 224 227 228 229 229 231 238 245 251 258 262 265 264 261 262 267 274 280 286 292 293 290 288 286 282 279 282 287 286 289 294 294 294 291 303 330 338 333 312 310
223 220 222 219 214 215 213 216 214 212 231 246 239 233 232 226 224 226 225 220 216 216 216 217 218 218 220 222 219 217 217 216 224 222 212 212 213 212 211 212 222 223 220 223 225 224 227 228 229 229 231 237 242 249 256 261 264 262 260 261 267 275 278 281 283 284 285 284 282 282 280 282 286 284 283 285 287 285 286 303 326 332 324 272 277
230 223 224 223 222 219 213 217 216 212 228 249 248 239 236 233 230 228 228 224 219 220 220 218 219 218 217 220 220 221 222 216 217 221 218 220 219 217 217 212 214 220 221 224 223 222 222 223 226 229 231 236 242 247 253 260 264 264 263 261 262 266 268 270 275 276 277 278 279 280 278 279 278 275 278 280 281 281 282 290 295 299 300 264 271
246 232 223 222 220 219 218 219 218 219 227 237 244 244 238 238 239 233 231 227 221 221 220 216 218 219 216 218 220 222 224 221 219 220 220 224 222 219 221 218 214 215 217 221 222 220 221 222 223 227 233 237 243 248 254 261 266 266 264 260 259 262 261 262 266 268 270 272 274 271 268 272 272 269 274 276 275 277 278 282 280 279 286 277 267
316 267 232 224 222 224 229 230 230 232 225 216 237 251 243 243 243 236 233 227 222 223 222 217 220 220 215 216 219 218 220 222 222 223 223 226 225 219 220 219 217 216 216 218 221 220 222 226 225 226 232 237 242 246 250 256 260 259 256 252 253 254 253 254 256 259 262 262 268 270 266 267 270 272 276 274 271 272 275 276 274 272 275 270 263
24 355 291 243 235 236 237 239 246 246 228 222 244 258 250 247 247 239 234 228 223 224 223 222 224 222 216 215 218 218 219 221 222 225 227 229 227 221 222 224 222 220 220 223 226 224 226 230 230 228 231 239 243 244 250 259 261 252 244 240 243 248 252 256 257 256 254 249 250 260 262 261 264 267 271 271 269 268 270 274 275 269 264 263 262
27 19 0 312 268 255 242 237 246 248 237 234 243 253 246 239 240 238 236 232 227 225 225 225 226 223 218 217 219 221 221 222 222 224 226 227 226 222 223 227 227 225 226 228 230 228 227 231 233 232 233 241 247 248 252 260 264 258 250 243 245 251 255 259 261 264 263 254 245 250 257 261 264 267 265 262 265 266 266 271 276 272 264 258 255
21 17 10 353 325 290 258 239 236 237 245 249 248 254 249 237 233 233 234 234 232 230 230 230 227 224 220 217 219 223 224 222 222 223 223 224 225 224 223 224 224 225 226 226 228 229 228 230 233 235 236 240 245 249 252 255 258 260 259 255 256 260 260 259 262 266 269 264 255 256 261 261 262 263 259 253 257 264 267 269 271 272 271 263 251
17 15 10 1 348 325 294 259 232 222 248 263 261 254 253 248 240 236 237 237 235 236 236 234 232 227 223 219 218 222 225 224 223 222 223 227 229 228 228 228 226 224 225 226 229 233 233 233 236 238 240 241 242 243 247 250 253 257 259 261 263 264 261 259 261 266 269 267 262 262 264 262 259 256 257 264 269 268 268 267 265 265 270 271 259
15 13 9 6 1 346 327 296 250 216 241 269 279 264 253 254 249 241 241 239 236 235 236 238 236 229 224 221 219 222 225 226 226 226 226 231 235 235 233 234 233 230 230 230 232 235 235 235 235 237 239 240 241 242 245 250 253 254 256 261 263 262 260 259 261 265 267 267 264 261 259 259 259 255 253 267 274 269 266 264 261 259 261 265 265
14 13 11 12 12 5 354 331 297 230 228 254 277 282 260 253 251 240 232 233 236 234 231 235 236 231 228 225 223 223 224 226 228 230 232 233 236 237 236 236 236 236 235 234 233 234 237 237 237 236 235 235 237 239 243 249 252 251 253 259 260 257 256 257 258 261 263 265 267 263 257 255 256 256 251 248 259 265 265 261 258 256 253 255 260
14 13 11 10 11 12 10 4 338 289 232 235 254 264 256 251 251 240 226 227 236 235 228 228 230 232 231 227 225 225 225 227 229 230 233 234 235 236 236 236 236 237 239 240 237 234 235 238 240 239 236 233 234 235 239 245 250 251 252 256 256 252 250 251 253 257 259 263 265 262 258 255 254 254 249 243 253 262 264 260 256 253 251 250 253
15 13 12 10 9 12 13 14 15 323 263 234 238 239 241 246 243 234 223 221 230 234 230 228 230 233 232 228 227 228 229 231 231 232 234 235 236 235 234 236 237 237 239 242 241 233 230 234 237 237 233 229 230 231 236 246 251 251 250 248 247 244 244 248 254 256 254 258 263 259 255 255 255 251 246 249 258 260 259 258 256 253 251 250 249
16 14 12 12 11 12 14 14 17 356 260 229 238 236 234 238 234 229 224 218 221 228 231 230 230 232 232 231 231 231 233 236 238 240 241 241 240 237 235 234 236 237 239 242 242 234 231 232 234 233 230 229 232 232 234 242 250 251 247 242 239 239 240 246 257 259 253 254 258 257 255 256 258 254 247 249 257 257 257 257 255 253 251 250 249
17 15 13 13 11 10 12 14 16 11 353 204 224 234 236 239 238 232 228 224 223 223 227 232 235 236 237 239 239 238 240 242 244 246 247 245 241 238 237 236 234 236 238 239 239 235 234 236 236 234 232 231 235 239 241 239 241 245 246 242 240 242 244 247 254 257 254 254 256 255 255 255 255 254 249 249 254 255 256 256 256 256 254 252 249
15 15 14 13 11 9 9 9 11 10 6 0 220 224 229 236 240 237 232 230 230 230 232 238 243 245 246 248 249 248 249 251 250 248 250 250 245 240 239 239 238 238 239 238 237 236 235 238 239 237 236 236 236 242 246 244 243 245 246 245 240 241 244 244 246 251 256 257 257 256 257 257 256 255 252 251 253 255 256 257 257 257 256 255 251
11 12 13 12 11 10 8 6 5 5 4 3 320 244 231 232 231 231 233 233 235 238 241 245 248 250 251 249 247 247 251 255 253 250 252 255 253 248 245 243 242 242 242 241 240 238 236 239 240 239 239 240 239 241 244 244 246 248 249 248 246 244 246 244 241 244 248 253 255 254 253 253 252 250 249 251 254 255 256 258 259 258 257 257 256
6 5 7 10 10 9 6 3 0 359 1 1 349 280 245 244 237 233 234 232 232 240 245 246 248 249 248 245 240 239 244 249 249 250 253 255 254 252 249 246 244 245 245 244 242 240 238 239 242 243 243 243 241 241 243 245 246 247 247 248 250 251 251 249 245 241 241 244 247 247 246 245 245 246 248 254 257 256 256 258 258 259 258 257 257
5 2 1 4 6 6 4 -0 357 356 358 357 350 327 260 245 239 237 240 236 232 236 241 243 241 241 243 242 241 243 244 243 240 241 248 254 253 251 250 247 245 247 248 247 245 243 242 244 246 246 244 243 241 241 244 246 246 245 246 247 248 251 252 251 248 244 244 248 251 253 253 251 250 249 249 252 254 255 255 257 257 256 256 258 258
353 356 357 358 359 1 1 357 356 358 359 353 345 336 304 263 242 233 236 241 242 239 238 238 236 236 238 240 242 245 247 246 245 239 241 249 252 249 247 245 244 247 248 247 247 246 246 248 247 246 245 243 240 240 242 244 244 243 245 246 246 247 249 251 250 247 246 249 254 257 256 255 254 252 250 249 249 251 253 255 257 257 256 257 257
333 339 350 355 354 357 356 352 353 357 359 354 341 336 327 309 290 260 246 247 252 250 244 240 238 239 240 240 241 242 243 246 247 242 238 243 249 251 248 243 243 246 247 247 248 248 248 248 246 247 246 243 240 240 241 242 243 244 244 246 247 247 249 252 254 254 251 250 254 256 254 253 252 251 252 250 244 244 248 251 253 255 255 255 256
349 339 345 347 347 352 352 348 348 351 353 351 339 331 329 320 307 285 266 262 258 251 248 247 244 243 242 241 240 240 240 242 243 242 240 243 248 251 250 248 246 247 249 249 247 247 248 249 248 248 246 242 237 235 237 240 244 245 244 245 248 250 250 252 256 258 255 252 255 255 251 247 244 246 251 251 245 243 247 250 252 253 255 258 260
14 6 358 346 342 349 350 346 344 346 346 344 338 332 328 321 308 285 267 266 262 250 249 251 247 243 240 238 239 240 238 239 242 242 240 241 243 246 250 251 251 252 252 250 247 247 248 248 248 248 245 241 236 234 237 240 242 242 241 243 246 247 248 251 255 256 252 249 252 253 250 246 244 246 250 251 250 249 252 258 260 261 264 266 267
11 12 8 359 354 358 356 346 340 342 342 338 335 333 329 321 309 290 270 263 259 255 258 259 252 246 243 236 234 237 237 235 236 235 234 237 240 245 249 250 250 253 255 254 252 250 248 245 246 246 245 242 239 235 236 239 240 239 237 238 242 245 247 251 254 253 250 247 247 249 250 249 245 246 248 250 251 253 257 262 262 263 267 268 267
357 1 3 0 358 3 4 349 339 340 341 336 333 333 329 320 308 297 285 267 258 259 262 261 253 248 244 237 232 235 237 234 229 225 227 233 240 246 250 250 251 255 258 260 260 256 250 246 245 244 242 240 239 234 232 236 238 237 233 232 235 239 244 248 249 250 249 245 242 243 246 247 246 247 249 249 251 257 262 263 261 262 263 262 263
344 349 353 354 353 355 360 353 341 339 338 334 332 330 327 321 311 302 292 271 263 265 260 252 252 248 242 236 230 229 234 236 232 227 224 232 242 250 253 251 254 260 263 266 268 265 257 245 237 237 237 233 230 229 231 236 238 235 232 232 232 234 238 243 246 249 251 247 240 236 236 239 242 248 253 252 252 257 260 258 259 261 263 264 263
339 339 341 344 346 345 348 351 344 338 336 334 332 329 326 324 316 307 297 272 262 265 260 250 253 253 245 239 233 229 231 235 236 235 235 242 251 256 256 256 261 265 267 269 272 275 265 242 225 220 224 224 222 224 231 238 241 237 233 232 231 232 236 242 245 248 250 246 238 233 232 233 237 243 250 251 249 252 255 256 256 258 263 268 267
335 334 331 334 338 338 340 343 338 336 336 335 334 332 327 324 318 310 302 283 268 268 266 258 254 254 249 241 233 227 223 222 228 238 245 251 256 259 259 261 264 264 265 267 267 271 267 242 223 213 216 220 219 223 232 238 241 238 234 233 231 229 232 238 240 240 237 236 235 236 237 238 239 240 241 239 241 247 254 257 258 262 269 272 267
329 328 325 325 329 331 332 333 331 332 335 335 335 333 328 324 316 306 297 285 274 271 273 271 264 257 250 237 224 218 215 215 225 238 246 250 253 259 264 266 267 266 264 261 255 252 253 236 220 214 217 218 217 227 236 238 238 235 232 231 228 224 226 233 236 232 229 233 236 237 236 236 238 243 245 243 244 246 249 255 263 269 270 265 261
321 320 319 318 319 321 324 326 328 330 334 336 335 333 330 325 316 307 298 289 280 276 277 277 269 254 241 230 218 210 212 220 228 236 244 248 252 257 263 266 266 264 260 256 247 241 237 227 218 218 219 217 220 229 234 234 233 231 227 226 225 223 224 227 227 225 227 231 232 231 233 234 240 249 251 251 250 251 254 259 265 268 265 257 258
317 316 316 314 315 316 317 321 325 328 331 333 333 332 329 320 310 309 309 302 290 280 274 270 264 251 235 228 221 214 220 230 234 233 236 243 247 251 256 259 259 256 254 252 243 235 232 225 221 221 222 222 226 228 227 226 224 222 220 220 221 220 220 221 222 223 225 228 230 233 235 234 237 245 249 251 256 262 266 265 260 260 261 257 253
316 315 315 313 312 312 313 317 322 324 326 328 329 331 327 316 307 312 318 312 295 279 267 259 257 253 239 230 225 220 225 234 235 233 234 232 233 235 238 243 250 253 251 246 233 224 219 214 214 217 218 220 223 221 215 212 209 208 211 212 211 209 207 208 214 221 224 228 236 242 242 237 237 244 252 257 263 267 268 263 250 247 253 255 254
314 313 313 311 309 309 310 314 318 319 320 322 325 325 322 316 309 312 321 319 302 288 275 263 258 256 245 236 228 223 226 231 230 230 229 222 219 220 219 222 233 241 245 242 227 213 206 201 200 201 200 201 203 199 193 192 194 196 200 203 203 203 204 204 211 222 229 237 248 255 252 247 245 251 257 262 265 263 256 244 233 231 236 240 244
312 312 312 311 308 306 306 308 312 314 315 316 318 318 316 316 315 317 321 317 302 292 281 269 262 257 248 240 231 225 225 228 227 226 223 217 211 208 205 207 213 221 234 233 212 191 185 181 175 172 174 178 181 180 180 186 191 193 198 201 200 203 206 211 221 230 238 249 258 261 259 256 254 254 255 256 255 248 234 225 223 221 221 226 235
313 312 312 311 308 304 303 304 308 310 308 308 312 313 312 314 317 320 323 317 302 293 282 267 258 250 241 238 232 225 223 222 220 218 218 214 206 199 198 202 202 201 207 204 185 172 171 173 173 175 180 187 195 196 196 200 202 201 206 209 212 220 226 232 239 243 245 246 245 246 253 259 256 247 242 239 237 230 221 221 225 227 231 239 249
312 310 311 311 309 306 304 304 305 305 302 301 306 310 311 312 313 318 326 327 314 298 288 271 256 245 234 233 231 225 223 223 218 210 210 210 206 200 199 198 193 187 184 184 182 181 184 186 187 189 191 198 206 206 204 204 203 203 209 216 227 237 241 244 246 245 237 234 235 238 245 246 236 224 216 214 220 226 226 228 233 238 244 252 258
309 308 308 308 308 308 307 305 304 302 298 297 300 306 311 311 309 313 324 330 320 300 291 277 259 248 233 225 227 226 223 222 215 207 206 210 211 207 200 194 189 186 185 187 193 199 201 200 199 196 194 197 203 203 199 197 198 206 218 229 238 245 247 246 245 236 217 217 228 232 226 217 211 210 207 208 216 226 233 236 239 244 253 260 261
309 308 307 306 306 306 306 306 304 301 297 293 295 303 310 312 311 311 318 326 325 307 292 273 258 256 244 227 223 223 222 218 213 209 208 210 212 210 202 194 191 193 196 202 208 212 214 216 217 209 198 197 202 201 194 194 203 215 227 237 243 246 243 238 234 226 215 217 224 223 214 207 204 202 203 207 214 221 228 237 246 257 271 273 257
309 308 307 305 304 303 302 302 302 300 298 292 291 299 308 314 315 313 315 322 326 321 305 274 255 254 251 238 226 221 222 219 214 209 208 209 213 211 203 198 198 200 202 209 216 219 219 223 229 225 210 203 205 204 200 201 209 219 229 240 243 238 228 221 219 220 220 219 215 209 206 208 206 202 203 209 212 210 212 242 273 272 270 272 255
307 308 306 303 301 300 298 299 300 299 295 289 289 296 303 311 318 316 311 315 323 330 327 285 258 252 248 241 232 224 221 217 212 208 208 210 211 208 203 202 204 205 205 209 215 217 218 223 229 227 218 212 210 209 208 208 210 218 232 239 237 227 217 212 212 213 213 210 201 197 200 204 203 201 201 200 201 198 195 266 302 277 224 221 237
307 308 306 302 300 299 298 299 302 301 295 288 286 291 297 303 313 316 312 310 316 327 333 297 267 261 252 239 230 223 217 211 207 206 207 207 204 201 203 207 208 209 210 210 212 216 221 226 229 225 221 220 218 216 215 212 208 209 219 224 222 215 209 204 202 203 203 203 199 196 199 199 192 190 193 195 200 206 205 217 237 227 216 220 220
309 308 307 303 301 299 297 296 297 297 295 289 282 285 292 296 303 312 314 309 306 315 330 325 285 267 257 238 221 213 211 209 205 200 199 200 200 200 204 208 209 212 213 213 216 224 228 230 229 225 221 219 218 216 215 212 204 197 198 199 195 193 194 195 199 199 195 196 199 196 197 197 191 189 193 194 204 220 219 213 211 210 212 216 212
310 307 305 300 298 297 295 293 291 289 289 287 281 280 285 288 293 303 311 310 304 300 318 334 287 250 248 236 215 206 204 205 204 201 198 199 201 202 203 205 207 210 213 212 213 219 223 221 219 221 219 213 211 215 215 210 198 190 190 191 185 182 182 185 191 191 184 185 195 195 196 201 199 198 201 202 207 215 216 214 217 214 205 205 210
309 307 303 298 296 297 296 294 293 291 289 288 283 281 282 281 282 292 302 308 306 290 280 314 272 236 234 228 213 206 205 206 205 205 205 205 205 206 208 211 212 213 216 216 213 214 218 213 205 210 217 211 207 213 212 200 186 181 181 176 170 173 176 177 181 187 187 189 197 202 204 208 209 207 211 214 215 217 216 215 218 219 213 212 214
Height
1528 1530 1532 1533 1533 1535 1536 1537 1539 1540 1542 1543 1545 1546 1547 1549 1551 1552 1553 1555 1556 1557 1559 1560 1562 1563 1563 1564 1565 1567 1568 1568 1569 1570 1572 1573 1573 1574 1575 1576 1576 1577 1578 1579 1580 1581 1582 1583 1584 1585 1586 1586 1587 1588 1588 1589 1588 1588 1588 1588 1588 1588 1588 1588 1587 1586 1586 1585 1585 1584 1583 1583 1581 1580 1579 1578 1577 1576 1575 1575 1575 1574 1574 1573 1572
1526 1529 1531 1531 1532 1533 1534 1536 1537 1539 1540 1542 1544 1545 1547 1548 1550 1551 1553 1554 1555 1557 1558 1560 1561 1562 1563 1564 1565 1567 1567 1567 1568 1569 1571 1572 1572 1573 1574 1575 1576 1577 1578 1579 1580 1581 1582 1582 1583 1584 1585 1585 1586 1586 1587 1587 1587 1587 1588 1587 1587 1588 1587 1587 1586 1586 1585 1585 1584 1583 1583 1582 1582 1580 1579 1578 1576 1576 1575 1575 1574 1574 1573 1573 1572
1524 1527 1530 1530 1530 1531 1533 1534 1535 1537 1539 1540 1542 1543 1544 1546 1548 1550 1552 1553 1554 1556 1557 1559 1560 1561 1562 1563 1565 1566 1566 1566 1567 1568 1570 1571 1572 1572 1573 1574 1575 1576 1577 1578 1579 1580 1581 1582 1583 1584 1584 1585 1585 1586 1586 1586 1586 1586 1587 1587 1587 1587 1587 1586 1586 1585 1585 1584 1584 1582 1581 1581 1580 1579 1578 1577 1576 1576 1575 1575 1574 1574 1573 1573 1572
1523 1525 1529 1530 1529 1529 1531 1532 1533 1535 1536 1537 1538 1540 1541 1543 1546 1548 1549 1550 1552 1554 1556 1558 1559 1560 1561 1562 1563 1564 1565 1565 1566 1567 1568 1570 1571 1571 1572 1573 1574 1575 1575 1577 1578 1579 1580 1581 1582 1583 1584 1584 1584 1585 1585 1586 1586 1586 1586 1586 1586 1586 1586 1586 1585 1585 1584 1584 1583 1582 1580 1579 1578 1577 1577 1577 1577 1576 1576 1575 1575 1574 1573 1572 1572
1522 1524 1527 1529 1528 1527 1528 1530 1532 1533 1534 1536 1538 1539 1540 1542 1544 1545 1546 1547 1549 1551 1554 1556 1558 1559 1560 1561 1562 1562 1563 1563 1564 1565 1566 1568 1570 1571 1571 1571 1572 1574 1574 1575 1576 1577 1578 1580 1581 1582 1583 1583 1584 1584 1585 1585 1586 1585 1585 1585 1585 1585 1585 1585 1585 1584 1584 1583 1583 1582 1581 1579 1578 1577 1577 1577 1578 1577 1576 1575 1575 1574 1573 1572 1572
1521 1522 1525 1527 1527 1526 1527 1529 1531 1532 1534 1536 1537 1538 1540 1541 1542 1543 1544 1545 1546 1547 1551 1554 1556 1557 1559 1559 1560 1560 1561 1562 1563 1564 1566 1567 1568 1570 1570 1571 1571 1572 1573 1574 1575 1576 1577 1578 1579 1581 1582 1582 1583 1583 1584 1584 1585 1585 1585 1585 1585 1585 1584 1584 1584 1584 1584 1583 1582 1582 1581 1580 1579 1578 1577 1577 1577 1577 1576 1575 1575 1574 1573 1572 1572
1519 1521 1523 1525 1526 1526 1526 1528 1530 1531 1531 1532 1533 1535 1537 1539 1541 1542 1543 1544 1545 1546 1549 1552 1554 1555 1557 1558 1558 1559 1560 1561 1562 1563 1565 1566 1567 1568 1569 1570 1570 1571 1572 1573 1574 1575 1576 1577 1578 1579 1580 1581 1582 1582 1582 1583 1584 1584 1584 1584 1584 1584 1583 1583 1583 1583 1583 1583 1582 1581 1581 1580 1579 1579 1578 1577 1576 1576 1576 1576 1575 1574 1573 1572 1571
1517 1519 1521 1523 1524 1525 1526 1527 1528 1529 1529 1529 1531 1532 1534 1537 1539 1541 1542 1542 1544 1545 1547 1550 1551 1553 1554 1556 1557 1558 1560 1560 1561 1562 1563 1564 1565 1567 1568 1569 1569 1570 1571 1571 1572 1573 1574 1575 1577 1578 1579 1580 1581 1581 1582 1582 1583 1583 1583 1583 1582 1582 1582 1582 1582 1583 1583 1582 1582 1581 1580 1579 1579 1578 1578 1577 1576 1576 1575 1575 1574 1574 1573 1572 1571
1516 1518 1519 1521 1523 1524 1525 1526 1527 1528 1527 1527 1529 1531 1533 1535 1537 1539 1540 1541 1542 1545 1546 1547 1549 1550 1552 1553 1555 1556 1558 1559 1559 1560 1561 1562 1563 1565 1566 1567 1568 1568 1569 1570 1571 1572 1573 1574 1575 1576 1577 1579 1580 1580 1581 1581 1581 1581 1581 1581 1581 1581 1581 1581 1581 1582 1582 1582 1581 1580 1580 1579 1578 1578 1577 1576 1576 1575 1575 1574 1574 1574 1573 1572 1571
1516 1517 1519 1520 1521 1522 1523 1524 1525 1527 1526 1526 1528 1530 1532 1533 1536 1538 1539 1540 1542 1543 1545 1546 1547 1549 1549 1551 1552 1554 1555 1557 1558 1558 1559 1560 1561 1563 1564 1565 1567 1567 1568 1569 1570 1570 1571 1573 1574 1575 1576 1577 1578 1579 1580 1580 1580 1580 1580 1580 1580 1580 1580 1580 1580 1580 1581 1581 1580 1579 1579 1578 1577 1576 1576 1575 1575 1575 1574 1574 1574 1573 1573 1572 1571
1516 1517 1518 1519 1520 1520 1521 1522 1523 1525 1525 1526 1528 1530 1533 1534 1535 1537 1538 1540 1541 1541 1542 1543 1545 1546 1547 1548 1549 1551 1553 1554 1555 1556 1558 1558 1560 1561 1562 1564 1565 1566 1567 1568 1568 1570 1571 1571 1573 1574 1575 1576 1577 1577 1578 1579 1579 1579 1579 1579 1579 1578 1579 1579 1578 1579 1579 1579 1579 1578 1577 1577 1575 1574 1574 1574 1574 1575 1574 1573 1573 1573 1572 1572 1571
1517 1518 1518 1519 1519 1519 1520 1522 1522 1524 1525 1528 1529 1530 1532 1533 1534 1535 1537 1538 1539 1539 1540 1541 1543 1544 1544 1546 1547 1549 1551 1552 1553 1555 1556 1557 1558 1560 1561 1562 1563 1565 1566 1567 1567 1569 1570 1570 1571 1573 1574 1574 1575 1576 1577 1577 1577 1578 1578 1578 1578 1577 1577 1577 1577 1577 1578 1577 1577 1577 1575 1575 1574 1573 1574 1574 1574 1574 1573 1573 1573 1572 1571 1571 1570
1518 1518 1519 1519 1520 1520 1521 1522 1522 1524 1525 1527 1528 1529 1531 1532 1533 1534 1535 1536 1536 1537 1537 1538 1541 1542 1542 1544 1545 1547 1549 1550 1552 1553 1554 1556 1557 1558 1559 1560 1561 1562 1564 1565 1566 1567 1568 1569 1569 1571 1572 1572 1573 1574 1575 1575 1575 1576 1576 1577 1576 1575 1575 1575 1575 1575 1575 1575 1575 1574 1573 1573 1573 1572 1572 1573 1573 1573 1572 1572 1572 1571 1570 1570 1569
1519 1519 1519 1519 1520 1520 1521 1522 1523 1524 1524 1524 1524 1526 1527 1528 1529 1531 1532 1534 1534 1534 1535 1536 1538 1539 1540 1542 1543 1545 1547 1548 1549 1551 1552 1553 1555 1556 1557 1558 1559 1560 1562 1563 1564 1565 1567 1567 1568 1569 1569 1570 1570 1571 1572 1572 1573 1574 1574 1574 1574 1574 1574 1574 1574 1574 1573 1573 1572 1571 1571 1572 1572 1571 1571 1571 1572 1572 1571 1571 1571 1570 1569 1569 1568
1520 1519 1520 1520 1520 1520 1521 1522 1523 1523 1523 1522 1522 1522 1523 1524 1525 1527 1528 1531 1532 1532 1533 1534 1535 1536 1538 1539 1541 1543 1545 1546 1547 1548 1550 1551 1552 1554 1555 1556 1558 1559 1560 1561 1562 1562 1564 1565 1566 1566 1567 1567 1568 1569 1570 1571 1571 1572 1572 1572 1572 1572 1572 1572 1572 1572 1571 1571 1570 1570 1570 1570 1570 1570 1570 1570 1570 1571 1571 1570 1570 1569 1568 1567 1567
1521 1520 1520 1520 1520 1520 1520 1521 1522 1522 1521 1520 1521 1522 1522 1522 1523 1524 1526 1528 1530 1531 1531 1531 1531 1533 1535 1537 1539 1541 1543 1544 1545 1546 1548 1549 1550 1551 1552 1554 1555 1556 1557 1558 1559 1560 1561 1563 1563 1564 1564 1565 1566 1567 1568 1569 1569 1570 1569 1569 1569 1569 1570 1570 1569 1569 1569 1569 1568 1568 1568 1568 1568 1567 1568 1567 1568 1569 1569 1569 1569 1568 1567 1566 1566
1523 1522 1521 1520 1520 1520 1520 1521 1522 1522 1521 1519 1519 1520 1520 1520 1521 1522 1524 1526 1528 1528 1529 1528 1528 1531 1534 1536 1537 1539 1541 1542 1543 1545 1546 1547 1548 1549 1550 1551 1552 1553 1555 1556 1557 1558 1559 1560 1561 1562 1562 1563 1563 1564 1565 1566 1567 1567 1567 1567 1567 1567 1567 1567 1567 1567 1567 1567 1566 1566 1566 1566 1566 1566 1565 1565 1567 1568 1567 1567 1567 1567 1566 1565 1565
1525 1523 1522 1521 1520 1520 1520 1520 1521 1521 1521 1519 1518 1518 1518 1519 1519 1521 1523 1525 1527 1526 1527 1528 1528 1530 1533 1534 1536 1538 1539 1540 1542 1543 1544 1545 1546 1547 1548 1549 1550 1551 1552 1553 1554 1555 1556 1556 1557 1558 1559 1560 1561 1562 1563 1563 1564 1564 1565 1565 1565 1564 1564 1564 1565 1565 1565 1565 1564 1564 1564 1564 1564 1564 1564 1563 1565 1566 1565 1565 1565 1565 1564 1564 1563
1525 1524 1523 1521 1520 1520 1519 1519 1520 1520 1520 1520 1519 1517 1517 1518 1519 1520 1522 1524 1525 1525 1525 1526 1528 1530 1532 1534 1535 1536 1537 1538 1539 1541 1541 1542 1543 1544 1546 1546 1548 1549 1549 1550 1550 1552 1553 1554 1554 1555 1556 1557 1558 1559 1560 1560 1561 1561 1562 1562 1561 1561 1561 1562 1562 1563 1563 1562 1562 1562 1562 1562 1562 1563 1563 1562 1563 1565 1564 1563 1563 1563 1563 1562 1562
1526 1525 1524 1522 1521 1520 1519 1519 1519 1519 1519 1519 1519 1518 1517 1517 1518 1519 1521 1522 1523 1523 1525 1526 1527 1530 1531 1532 1533 1534 1535 1535 1536 1538 1538 1539 1541 1542 1543 1544 1545 1546 1547 1547 1547 1549 1550 1551 1552 1553 1554 1555 1555 1556 1557 1557 1558 1559 1559 1559 1559 1559 1559 1559 1560 1560 1560 1560 1560 1560 1560 1560 1561 1561 1561 1561 1562 1563 1563 1562 1562 1561 1561 1560 1560
1528 1527 1525 1524 1522 1520 1520 1519 1518 1518 1518 1518 1518 1517 1517 1517 1517 1518 1519 1521 1522 1522 1524 1525 1527 1528 1529 1530 1530 1531 1532 1533 1533 1535 1535 1537 1538 1539 1540 1541 1541 1542 1544 1544 1545 1546 1547 1548 1549 1551 1552 1553 1553 1554 1555 1555 1555 1556 1556 1557 1557 1557 1557 1557 1557 1557 1557 1557 1557 1558 1558 1558 1559 1559 1559 1559 1561 1561 1561 1561 1560 1560 1559 1559 1559
1530 1529 1527 1525 1523 1521 1520 1519 1518 1517 1516 1517 1517 1516 1517 1516 1516 1517 1518 1519 1521 1521 1523 1524 1525 1526 1526 1527 1527 1528 1529 1530 1531 1532 1533 1534 1535 1536 1537 1538 1538 1540 1540 1541 1542 1543 1544 1545 1546 1548 1549 1550 1550 1551 1552 1553 1553 1554 1554 1554 1555 1555 1555 1555 1555 1555 1555 1555 1555 1555 1555 1556 1557 1557 1557 1558 1559 1559 1559 1559 1559 1558 1558 1558 1557
1533 1530 1528 1526 1524 1522 1520 1519 1518 1517 1516 1516 1516 1516 1516 1516 1515 1516 1515 1516 1518 1519 1521 1521 1522 1523 1524 1524 1525 1526 1527 1527 1528 1529 1530 1531 1532 1533 1534 1535 1536 1537 1537 1538 1539 1540 1541 1542 1543 1545 1546 1547 1548 1548 1549 1550 1551 1551 1552 1552 1553 1553 1553 1554 1554 1553 1553 1553 1553 1553 1553 1554 1555 1555 1555 1556 1557 1557 1557 1557 1557 1557 1556 1556 1556
1535 1532 1530 1527 1525 1522 1521 1519 1517 1517 1516 1516 1515 1514 1514 1514 1513 1513 1513 1514 1515 1516 1517 1518 1519 1520 1520 1521 1522 1523 1524 1525 1525 1526 1527 1528 1529 1530 1531 1532 1533 1534 1534 1535 1536 1537 1538 1539 1540 1541 1542 1543 1544 1545 1546 1547 1548 1548 1549 1550 1550 1551 1551 1551 1552 1552 1552 1551 1551 1551 1552 1553 1553 1553 1554 1554 1554 1554 1554 1554 1554 1554 1554 1554 1554
1536 1534 1531 1528 1526 1523 1521 1520 1518 1517 1516 1515 1514 1513 1513 1512 1512 1512 1512 1512 1513 1514 1514 1514 1515 1516 1516 1517 1518 1519 1520 1521 1522 1523 1525 1525 1526 1527 1527 1528 1529 1530 1531 1533 1534 1535 1536 1536 1537 1538 1540 1540 1541 1542 1543 1544 1545 1546 1546 1547 1547 1548 1548 1549 1549 1550 1550 1549 1549 1549 1550 1551 1551 1551 1551 1552 1552 1552 1552 1552 1552 1552 1552 1552 1552
1537 1535 1533 1529 1527 1525 1522 1520 1519 1518 1517 1515 1514 1512 1511 1511 1511 1511 1511 1511 1510 1511 1511 1511 1512 1512 1513 1514 1515 1515 1516 1517 1518 1519 1521 1522 1522 1523 1524 1524 1526 1527 1528 1530 1531 1532 1533 1534 1535 1536 1537 1538 1538 1539 1540 1541 1542 1543 1543 1544 1545 1545 1545 1546 1546 1547 1547 1547 1546 1547 1547 1547 1548 1548 1549 1550 1550 1550 1550 1550 1550 1550 1550 1549 1549
1538 1536 1534 1531 1528 1526 1523 1521 1520 1519 1517 1514 1513 1512 1510 1509 1509 1510 1510 1509 1508 1508 1508 1508 1509 1509 1510 1510 1511 1512 1513 1514 1514 1515 1517 1518 1519 1520 1520 1520 1522 1523 1524 1526 1527 1528 1530 1531 1532 1533 1534 1535 1536 1536 1537 1537 1538 1539 1540 1541 1542 1542 1542 1543 1543 1544 1544 1544 1544 1544 1544 1544 1544 1545 1546 1547 1547 1548 1548 1548 1548 1548 1547 1547 1546
1538 1537 1536 1532 1529 1526 1524 1522 1520 1519 1517 1514 1512 1511 1509 1508 1508 1507 1507 1507 1507 1507 1506 1506 1506 1506 1507 1508 1508 1508 1509 1510 1511 1511 1513 1515 1517 1517 1517 1517 1517 1519 1520 1521 1523 1525 1526 1528 1529 1530 1531 1532 1533 1533 1534 1534 1535 1536 1537 1537 1538 1539 1539 1539 1540 1541 1541 1542 1541 1541 1541 1541 1542 1542 1543 1544 1544 1545 1546 1546 1546 1545 1545 1544 1544
1538 1537 1535 1533 1530 1526 1523 1522 1520 1519 1518 1514 1511 1510 1508 1507 1506 1505 1505 1505 1505 1505 1504 1504 1504 1504 1505 1505 1505 1506 1506 1507 1507 1508 1510 1512 1513 1514 1514 1514 1514 1515 1517 1518 1519 1521 1523 1525 1526 1527 1528 1529 1529 1530 1530 1531 1532 1532 1533 1534 1535 1535 1536 1536 1537 1537 1538 1538 1538 1538 1538 1539 1540 1540 1540 1541 1542 1543 1543 1543 1543 1542 1542 1542 1541
1537 1536 1533 1531 1530 1527 1523 1522 1520 1519 1518 1514 1511 1509 1507 1506 1504 1503 1503 1503 1503 1503 1502 1502 1502 1502 1502 1503 1503 1503 1503 1503 1504 1506 1507 1508 1509 1511 1511 1512 1512 1512 1513 1514 1516 1517 1519 1520 1522 1524 1524 1525 1525 1526 1527 1527 1528 1529 1530 1531 1531 1532 1532 1533 1534 1534 1535 1535 1535 1535 1535 1535 1536 1537 1537 1538 1540 1540 1540 1540 1540 1540 1540 1539 1539
1536 1534 1532 1530 1528 1525 1522 1521 1520 1519 1518 1515 1511 1508 1506 1505 1503 1502 1502 1501 1501 1501 1500 1500 1500 1499 1499 1500 1500 1500 1499 1500 1502 1503 1505 1506 1507 1508 1508 1509 1509 1510 1510 1511 1512 1513 1514 1516 1518 1519 1521 1522 1522 1523 1524 1525 1525 1526 1527 1528 1528 1529 1529 1530 1531 1531 1531 1532 1533 1533 1533 1533 1533 1534 1535 1536 1537 1537 1538 1538 1538 1538 1538 1537 1537
1535 1533 1531 1529 1526 1523 1521 1521 1520 1518 1517 1515 1511 1507 1504 1503 1502 1501 1501 1500 1500 1499 1498 1498 1498 1497 1497 1497 1497 1498 1498 1499 1500 1501 1503 1504 1505 1505 1506 1506 1507 1507 1508 1508 1508 1509 1510 1511 1512 1514 1516 1518 1519 1520 1522 1522 1523 1523 1524 1525 1526 1527 1528 1528 1528 1528 1529 1530 1531 1531 1530 1530 1530 1531 1532 1533 1534 1535 1536 1536 1536 1536 1536 1536 1535
1534 1532 1530 1528 1526 1523 1521 1521 1519 1517 1516 1514 1510 1506 1503 1501 1500 1500 1500 1499 1498 1498 1497 1497 1496 1496 1496 1495 1496 1496 1496 1497 1499 1500 1501 1502 1502 1503 1504 1505 1506 1506 1506 1505 1505 1505 1505 1506 1508 1510 1513 1515 1516 1518 1520 1521 1521 1521 1522 1523 1523 1524 1525 1525 1525 1525 1526 1527 1528 1528 1528 1528 1528 1529 1530 1531 1532 1533 1533 1533 1533 1534 1533 1534 1534
1534 1532 1530 1527 1525 1523 1521 1519 1518 1517 1516 1513 1509 1505 1502 1499 1498 1498 1498 1498 1497 1496 1496 1495 1495 1494 1494 1494 1494 1495 1495 1496 1497 1498 1499 1500 1501 1502 1503 1504 1504 1504 1503 1503 1503 1502 1501 1502 1504 1506 1509 1511 1513 1515 1517 1518 1519 1519 1519 1520 1521 1522 1523 1523 1523 1523 1524 1524 1525 1526 1526 1527 1527 1527 1528 1529 1530 1530 1530 1530 1531 1531 1531 1531 1532
1533 1531 1529 1527 1524 1522 1520 1519 1519 1518 1515 1512 1507 1503 1500 1498 1497 1497 1496 1496 1495 1495 1495 1494 1493 1492 1492 1492 1493 1493 1494 1495 1495 1496 1497 1498 1499 1500 1501 1502 1502 1501 1501 1501 1501 1500 1498 1499 1501 1504 1506 1509 1510 1512 1514 1515 1516 1516 1516 1517 1518 1519 1520 1520 1520 1521 1521 1522 1523 1523 1524 1524 1525 1525 1526 1527 1528 1528 1528 1528 1529 1530 1530 1530 1529
1532 1530 1529 1527 1524 1522 1521 1520 1519 1517 1514 1510 1506 1501 1498 1497 1496 1496 1495 1494 1493 1493 1493 1493 1491 1491 1491 1491 1491 1492 1493 1493 1493 1494 1495 1496 1497 1498 1499 1500 1500 1500 1499 1499 1499 1498 1497 1497 1500 1502 1504 1506 1508 1510 1512 1512 1513 1513 1514 1515 1516 1517 1518 1518 1518 1518 1519 1520 1520 1521 1522 1522 1523 1523 1524 1524 1526 1527 1527 1527 1527 1528 1528 1528 1528
1531 1529 1527 1525 1524 1522 1520 1518 1517 1514 1512 1509 1505 1501 1497 1496 1496 1495 1493 1492 1491 1492 1493 1493 1491 1489 1489 1490 1490 1491 1491 1491 1492 1493 1493 1494 1495 1496 1498 1499 1499 1499 1498 1497 1497 1497 1497 1497 1499 1500 1501 1503 1505 1507 1508 1509 1510 1510 1511 1512 1514 1515 1515 1516 1516 1516 1517 1518 1519 1519 1520 1521 1522 1522 1521 1522 1523 1525 1525 1526 1526 1526 1527 1527 1526
1529 1527 1525 1524 1522 1520 1518 1516 1514 1511 1509 1507 1504 1501 1498 1496 1495 1494 1493 1492 1491 1491 1492 1493 1491 1489 1488 1488 1489 1490 1490 1490 1491 1491 1492 1492 1493 1494 1496 1498 1499 1499 1498 1497 1496 1496 1496 1496 1497 1498 1500 1501 1502 1504 1505 1506 1507 1508 1509 1510 1511 1512 1513 1514 1515 1515 1515 1516 1517 1517 1518 1519 1520 1519 1519 1520 1521 1522 1522 1523 1524 1525 1525 1525 1526
1527 1525 1523 1522 1519 1517 1516 1514 1512 1510 1507 1505 1503 1501 1498 1496 1494 1493 1493 1492 1491 1490 1491 1492 1490 1488 1487 1487 1488 1489 1489 1490 1490 1490 1490 1491 1492 1492 1494 1496 1497 1498 1497 1497 1496 1495 1495 1496 1497 1497 1498 1500 1501 1501 1503 1504 1505 1506 1507 1508 1509 1510 1512 1513 1513 1514 1515 1515 1515 1515 1515 1516 1517 1517 1517 1518 1518 1519 1519 1521 1522 1522 1523 1524 1524
1525 1523 1521 1520 1517 1515 1514 1512 1511 1509 1507 1505 1503 1501 1499 1496 1494 1493 1492 1492 1491 1490 1490 1490 1489 1487 1486 1486 1487 1487 1488 1489 1489 1489 1489 1489 1490 1491 1492 1493 1495 1497 1497 1497 1495 1495 1495 1495 1496 1497 1498 1499 1500 1500 1501 1502 1503 1505 1506 1507 1508 1509 1510 1511 1512 1513 1514 1514 1514 1514 1512 1512 1514 1514 1514 1515 1515 1516 1517 1518 1518 1519 1520 1521 1520
1523 1521 1520 1518 1515 1514 1512 1511 1510 1508 1506 1504 1503 1501 1499 1496 1494 1492 1492 1492 1491 1490 1489 1489 1488 1486 1486 1485 1486 1486 1487 1488 1488 1488 1488 1489 1489 1490 1490 1492 1493 1495 1496 1496 1495 1495 1495 1495 1496 1497 1498 1498 1499 1500 1501 1502 1503 1504 1505 1507 1508 1509 1509 1510 1511 1512 1513 1513 1514 1513 1510 1509 1510 1511 1511 1512 1512 1513 1514 1515 1515 1516 1517 1517 1518
1521 1519 1518 1516 1514 1512 1510 1509 1508 1506 1505 1503 1502 1500 1498 1495 1493 1491 1490 1490 1489 1489 1488 1487 1485 1484 1484 1484 1485 1486 1486 1487 1487 1487 1488 1489 1489 1490 1491 1491 1492 1493 1495 1496 1496 1495 1496 1496 1496 1496 1497 1498 1499 1500 1501 1501 1502 1503 1504 1505 1506 1507 1508 1509 1509 1510 1511 1512 1512 1511 1508 1507 1508 1508 1509 1510 1510 1511 1511 1512 1513 1514 1515 1515 1516
1519 1517 1516 1514 1512 1510 1508 1507 1506 1505 1503 1502 1500 1499 1497 1494 1492 1490 1488 1487 1487 1486 1486 1485 1483 1483 1483 1483 1483 1484 1485 1486 1487 1487 1487 1488 1489 1489 1490 1490 1491 1491 1494 1496 1496 1496 1496 1496 1496 1496 1497 1498 1498 1499 1499 1500 1501 1502 1503 1504 1504 1505 1505 1506 1507 1507 1508 1509 1508 1507 1506 1505 1506 1506 1507 1508 1509 1509 1510 1510 1511 1512 1513 1514 1514
1516 1515 1513 1512 1510 1508 1506 1505 1504 1503 1501 1500 1499 1497 1495 1493 1491 1489 1487 1486 1485 1484 1484 1483 1482 1482 1482 1482 1482 1483 1484 1485 1486 1486 1487 1488 1489 1489 1489 1490 1491 1491 1493 1495 1496 1496 1497 1497 1496 1496 1496 1497 1497 1498 1498 1499 1500 1501 1501 1502 1502 1503 1503 1504 1504 1505 1505 1506 1505 1505 1504 1504 1505 1505 1506 1507 1507 1508 1508 1509 1510 1511 1511 1512 1512
1514 1513 1511 1509 1508 1506 1504 1503 1502 1501 1499 1498 1497 1495 1494 1492 1490 1488 1486 1485 1484 1483 1483 1482 1482 1481 1481 1481 1481 1481 1482 1483 1484 1485 1486 1487 1488 1489 1489 1489 1490 1491 1492 1494 1495 1496 1497 1497 1497 1496 1496 1496 1497 1497 1497 1498 1499 1499 1500 1500 1501 1501 1502 1502 1503 1503 1503 1503 1504 1504 1504 1504 1504 1505 1505 1506 1506 1507 1508 1508 1509 1510 1510 1510 1511
1512 1510 1509 1507 1505 1504 1503 1501 1499 1499 1497 1496 1495 1494 1492 1491 1489 1488 1486 1484 1483 1483 1483 1482 1481 1480 1481 1481 1480 1480 1481 1482 1483 1484 1484 1486 1487 1488 1488 1489 1489 1490 1492 1493 1494 1495 1496 1496 1496 1496 1496 1496 1496 1496 1496 1497 1497 1498 1498 1499 1499 1499 1500 1501 1501 1502 1502 1502 1503 1503 1503 1504 1504 1504 1504 1505 1505 1506 1507 1507 1508 1508 1509 1509 1509
1510 1508 1507 1505 1503 1502 1501 1499 1497 1496 1495 1494 1493 1492 1491 1490 1488 1487 1486 1484 1483 1483 1483 1483 1481 1479 1480 1481 1481 1480 1480 1480 1482 1483 1483 1484 1485 1487 1487 1488 1488 1489 1491 1492 1493 1494 1495 1496 1496 1495 1495 1495 1495 1495 1495 1495 1496 1497 1497 1498 1498 1498 1498 1499 1500 1501 1501 1502 1502 1503 1503 1503 1503 1503 1504 1504 1505 1505 1506 1506 1507 1507 1508 1508 1508
1508 1506 1505 1503 1501 1499 1498 1497 1495 1494 1493 1492 1491 1490 1490 1489 1488 1486 1485 1484 1483 1483 1483 1482 1480 1479 1479 1480 1481 1481 1480 1480 1481 1482 1482 1483 1484 1485 1486 1486 1487 1488 1489 1490 1492 1493 1494 1495 1495 1495 1494 1494 1494 1494 1493 1494 1495 1496 1496 1497 1497 1497 1498 1498 1499 1500 1500 1501 1501 1502 1502 1503 1503 1503 1503 1504 1504 1505 1506 1506 1507 1507 1507 1507 1506
1506 1504 1502 1501 1499 1497 1496 1495 1493 1492 1491 1490 1489 1489 1488 1487 1487 1485 1484 1483 1483 1482 1482 1482 1480 1478 1477 1479 1480 1480 1480 1480 1481 1481 1482 1483 1483 1484 1485 1485 1486 1487 1488 1490 1491 1492 1493 1494 1494 1494 1493 1493 1492 1492 1492 1492 1494 1495 1495 1496 1496 1497 1497 1498 1499 1499 1500 1500 1501 1501 1502 1502 1502 1503 1504 1504 1505 1505 1506 1506 1507 1507 1507 1507 1506
1504 1501 1500 1498 1497 1495 1494 1492 1491 1490 1489 1488 1488 1487 1486 1486 1485 1484 1483 1482 1482 1482 1482 1482 1481 1478 1476 1477 1478 1478 1479 1480 1480 1481 1482 1482 1482 1483 1484 1484 1485 1485 1487 1488 1490 1491 1492 1493 1493 1493 1492 1491 1491 1491 1491 1492 1493 1493 1494 1495 1495 1496 1497 1498 1498 1499 1499 1500 1501 1501 1502 1503 1503 1503 1504 1505 1505 1506 1506 1507 1507 1506 1506 1506 1506
1501 1499 1497 1496 1494 1493 1492 1490 1489 1487 1486 1486 1486 1485 1484 1484 1484 1483 1482 1481 1481 1481 1481 1481 1480 1478 1476 1476 1477 1477 1478 1479 1480 1481 1481 1481 1481 1482 1483 1483 1484 1484 1485 1487 1488 1489 1490 1490 1491 1491 1490 1489 1489 1489 1490 1491 1492 1492 1493 1494 1495 1496 1497 1497 1498 1498 1499 1501 1502 1502 1503 1503 1503 1503 1504 1505 1505 1506 1506 1507 1507 1506 1506 1506 1506